Regional Weather Roundup
Issued by NWS

Home | Current Version | Previous Version | Graphics & Text | Print | Product List | Glossary On
Versions: 1 2 3 4 5 6 7 8 9 10 11 12 13 14 15 16 17 18 19 20 21 22 23 24 25 26 27 28 29 30 31 32 33 34 35 36 37 38 39 40 41 42 43 44 45 46 47 48 49 50
000
ASUS43 KLSX 311407
RWRMO

WEATHER SUMMARY FOR MISSOURI
NATIONAL WEATHER SERVICE SPRINGFIELD MO
900 AM CDT THU JUL 31 2014

NOTE: "FAIR" INDICATES FEW OR NO CLOUDS BELOW 12,000 FEET WITH NO
       SIGNIFICANT WEATHER AND/OR OBSTRUCTIONS TO VISIBILITY.
       CURRENT SKY AND/OR WEATHER CONDITIONS ARE NOT AVAILABLE FOR
       CHILLICOTHE AND FARMINGTON.

MOZ001>031-035>038-043-044-053-054-311500-
...NORTHERN AND WESTERN MISSOURI...

CITY           SKY/WX    TMP DP  RH WIND       PRES   REMARKS
KANSAS CTY INT MOSUNNY   71  60  68 CALM      30.12S
KANSAS C DTWN  SUNNY     71  60  68 CALM      30.11R
LEE`S SUMMIT   SUNNY     70  61  73 SE3       30.12S
ST JOSEPH      SUNNY     65  60  84 CALM      30.12S
CHILLICOTHE      N/A     69  61  75 CALM      30.12S
KIRKSVILLE     SUNNY     72  63  73 CALM      30.13R

$$
MOZ066>068-077>081-088>096-101>105-311500-
...SOUTHWEST MISSOURI...

CITY           SKY/WX    TMP DP  RH WIND       PRES   REMARKS
SPRINGFIELD    MOSUNNY   69  64  84 VRB3      30.11S
JOPLIN         MOSUNNY   70  66  87 NE6       30.11R

$$
MOZ032>034-039>042-045>050-055>058-069>072-311500-
...CENTRAL MISSOURI...

CITY           SKY/WX    TMP DP  RH WIND       PRES   REMARKS
COLUMBIA       SUNNY     72  60  66 E6        30.11S
JEFFERSON CITY SUNNY     70  62  76 CALM      30.10S
ROLLA            N/A     71  60  68 CALM      30.10R
SEDALIA        SUNNY     72  63  73 CALM      30.12R
WHITEMAN AFB   MOSUNNY   69  55  62 VRB1      30.11R
OSAGE BEACH    SUNNY     64  61  88 CALM      30.11S

$$
MOZ051-052-059>065-311500-
...EAST CENTRAL MISSOURI...

CITY           SKY/WX    TMP DP  RH WIND       PRES   REMARKS
ST LOUIS INTL  NOT AVBL
SPIRIT OF STL  SUNNY     71  62  73 CALM      30.09S
ST CHARLES     SUNNY     72  63  73 CALM      30.09S

$$
MOZ072>076-082>087-097>100-106>115-311500-
...SOUTH CENTRAL AND SOUTHEAST MISSOURI...

CITY           SKY/WX    TMP DP  RH WIND       PRES   REMARKS
CAPE GIRARDEAU MOSUNNY   70  66  87 CALM      30.11R
FARMINGTON     SUNNY     66  64  94 CALM      30.14R
POPLAR BLUFF   CLOUDY    70  63  78 S8        30.10S
WEST PLAINS    PTSUNNY   70  64  81 E7        30.12S

$$



USA.gov is the U.S. government's official web portal to all federal, state and local government web resources and services.